CST,Max TemperatureF,Mean TemperatureF,Min TemperatureF,Max Dew PointF,MeanDew PointF,Min DewpointF,Max Humidity, Mean Humidity, Min Humidity, Max Sea Level PressureIn, Mean Sea Level PressureIn, Min Sea Level PressureIn, Max VisibilityMiles, Mean VisibilityMiles, Min VisibilityMiles, Max Wind SpeedMPH, Mean Wind SpeedMPH, Max Gust SpeedMPH,PrecipitationIn, CloudCover, Events, WindDirDegrees
2013-2-1,0,-8,-16,-6,-16,-24,78,66,50,30.26,30.17,30.07,10,9,4,9,6,,0.00,3,Snow,279
2013-2-2,8,-2,-13,3,-5,-17,85,71,52,30.15,30.07,29.95,10,8,2,8,2,,0.00,5,Snow,272
2013-2-3,14,8,3,3,1,0,85,71,53,30.01,29.98,29.93,10,10,5,13,6,18,0.00,5,Snow,310
2013-2-4,12,0,-13,9,-6,-18,85,62,41,30.05,29.95,29.72,10,9,2,12,3,,0.00,4,Snow,234
2013-2-5,23,12,-2,19,10,-6,93,78,54,30.06,29.83,29.61,10,9,2,14,8,17,0.00,4,Snow,320
2013-2-6,23,9,-5,21,9,-11,93,86,73,30.09,30.04,29.97,10,8,0,8,2,,0.00,7,Snow,129
2013-2-7,28,26,23,23,21,18,100,85,69,30.27,30.13,30.03,10,9,3,14,7,20,0.00,8,,66
2013-2-8,26,16,5,18,12,1,100,75,55,30.37,30.31,30.25,10,10,0,7,3,,0.00,2,Snow,125
2013-2-9,30,18,5,28,22,1,100,88,75,30.24,30.07,29.96,10,7,2,15,8,25,0.01,8,,187
2013-2-10,32,29,26,32,28,23,100,94,86,29.96,29.58,29.29,7,4,0,13,7,21,0.00,8,Snow,99
2013-2-11,32,26,21,32,22,16,100,84,74,29.97,29.67,29.30,10,8,2,18,10,25,0.00,8,Snow,333
2013-2-12,32,22,12,21,17,9,93,77,64,29.98,29.87,29.75,10,10,5,14,7,18,0.02,4,Snow,247
2013-2-13,33,27,21,30,24,19,100,84,69,29.76,29.66,29.60,10,8,1,10,5,,0.06,7,Snow,256
2013-2-14,30,19,8,28,15,0,93,72,40,30.12,29.87,29.62,10,10,3,16,7,23,0.01,4,Snow,1
2013-2-15,17,9,1,3,1,-2,92,65,45,30.25,30.21,30.13,10,10,10,15,6,21,0.00,4,,344
2013-2-16,19,6,-7,1,-3,-13,85,70,42,30.20,30.15,30.11,10,10,10,6,1,,0.00,2,,280
2013-2-17,28,10,-9,16,5,-17,85,66,51,30.12,29.91,29.67,10,10,10,17,6,23,0.00,3,,173
2013-2-18,32,23,12,28,19,5,87,78,67,29.72,29.58,29.51,10,9,2,18,10,31,0.00,6,Snow,271
2013-2-19,10,5,0,1,-6,-11,73,61,48,30.30,30.03,29.75,10,10,7,21,15,30,0.00,2,,356
2013-2-20,19,3,-13,3,-3,-20,85,68,46,30.44,30.40,30.30,10,10,10,8,3,,0.00,1,,25
2013-2-21,28,8,-13,18,4,-18,92,73,50,30.47,30.33,30.12,10,10,10,14,4,20,0.00,1,,84
2013-2-22,28,24,19,25,21,18,100,88,80,30.13,29.92,29.82,10,5,1,12,6,17,0.00,8,Snow,68
2013-2-23,32,26,21,27,23,19,100,84,69,29.92,29.83,29.79,10,10,2,7,3,,0.03,8,Snow,303
2013-2-24,32,22,12,21,19,10,100,81,64,30.09,30.03,29.92,10,9,2,9,3,,0.06,2,,287
2013-2-25,33,19,5,23,16,1,100,82,60,30.10,30.07,30.04,10,9,5,7,0,,0.03,3,,261
2013-2-26,37,21,5,28,19,3,100,82,60,30.07,29.98,29.90,10,7,0,18,4,25,0.00,5,Fog,54
2013-2-27,32,31,30,27,25,21,86,77,69,30.01,29.92,29.88,10,10,5,20,13,29,0.03,8,Snow,47
2013-2-28,30,26,23,23,19,16,80,71,64,30.24,30.14,30.01,10,10,10,16,11,23,0.00,7,,58